QPF
0.00 0.00 0.00 0.00 0.00 0.00 0.01 0.02 0.02 0.01 0.00 0.00 0.00 0.00 0.00 0.00 0.00 0.00 0.00 0.00 0.00 0.00 0.01 0.01 0.02 0.03 0.05 0.08 0.12 0.16 0.19 0.21 0.24 0.29 0.34 0.38 0.39 0.34
0.00 0.00 0.00 0.00 0.00 0.00 0.00 0.00 0.00 0.01 0.01 0.00 0.00 0.00 0.00 0.00 0.00 0.00 0.00 0.00 0.00 0.00 0.00 0.00 0.01 0.01 0.02 0.04 0.07 0.10 0.13 0.15 0.18 0.22 0.26 0.30 0.32 0.34
0.00 0.00 0.00 0.00 0.00 0.00 0.00 0.00 0.00 0.01 0.01 0.00 0.00 0.00 0.00 0.00 0.00 0.00 0.00 0.00 0.00 0.00 0.00 0.00 0.01 0.02 0.02 0.03 0.04 0.06 0.08 0.11 0.15 0.19 0.23 0.27 0.30 0.30
0.00 0.00 0.00 0.00 0.00 0.00 0.00 0.00 0.00 0.01 0.02 0.02 0.00 0.00 0.00 0.00 0.00 0.00 0.00 0.00 0.00 0.00 0.00 0.00 0.01 0.01 0.02 0.03 0.03 0.03 0.05 0.08 0.11 0.14 0.18 0.22 0.27 0.30
0.00 0.00 0.00 0.00 0.00 0.00 0.00 0.00 0.00 0.01 0.01 0.02 0.01 0.00 0.00 0.00 0.00 0.00 0.00 0.00 0.00 0.00 0.00 0.00 0.00 0.01 0.01 0.02 0.02 0.02 0.02 0.03 0.05 0.09 0.12 0.15 0.19 0.24
0.00 0.00 0.00 0.00 0.00 0.00 0.00 0.01 0.01 0.01 0.01 0.03 0.03 0.02 0.01 0.00 0.01 0.01 0.00 0.00 0.00 0.00 0.00 0.01 0.01 0.01 0.00 0.00 0.01 0.01 0.01 0.01 0.02 0.04 0.07 0.11 0.14 0.18
0.00 0.00 0.00 0.00 0.00 0.01 0.01 0.01 0.02 0.03 0.04 0.04 0.03 0.02 0.01 0.01 0.01 0.01 0.01 0.01 0.01 0.02 0.02 0.01 0.01 0.01 0.01 0.01 0.01 0.00 0.01 0.01 0.01 0.02 0.03 0.06 0.10 0.15
0.00 0.00 0.00 0.00 0.00 0.01 0.01 0.02 0.03 0.04 0.05 0.04 0.04 0.03 0.02 0.02 0.02 0.03 0.04 0.05 0.04 0.03 0.03 0.02 0.01 0.01 0.00 0.00 0.00 0.00 0.00 0.01 0.01 0.01 0.02 0.05 0.08 0.14
0.00 0.00 0.00 0.00 0.01 0.00 0.01 0.02 0.03 0.03 0.03 0.03 0.03 0.03 0.03 0.03 0.05 0.07 0.08 0.08 0.06 0.03 0.03 0.03 0.01 0.01 0.01 0.01 0.01 0.01 0.01 0.00 0.01 0.01 0.02 0.06 0.10 0.16
0.00 0.00 0.01 0.01 0.01 0.01 0.03 0.03 0.02 0.01 0.01 0.01 0.02 0.03 0.04 0.04 0.06 0.08 0.08 0.06 0.04 0.02 0.03 0.05 0.03 0.02 0.01 0.01 0.01 0.01 0.01 0.00 0.00 0.01 0.03 0.07 0.11 0.16
0.00 0.01 0.01 0.01 0.01 0.04 0.05 0.05 0.02 0.00 0.00 0.01 0.02 0.02 0.03 0.02 0.03 0.06 0.10 0.12 0.09 0.03 0.02 0.03 0.03 0.03 0.02 0.01 0.01 0.01 0.01 0.01 0.01 0.02 0.05 0.08 0.13 0.19
0.01 0.01 0.01 0.01 0.03 0.05 0.05 0.04 0.01 0.01 0.01 0.01 0.01 0.00 0.00 0.00 0.02 0.06 0.15 0.20 0.12 0.05 0.02 0.03 0.03 0.04 0.05 0.01 0.01 0.02 0.02 0.03 0.03 0.04 0.07 0.10 0.14 0.16
0.02 0.01 0.00 0.02 0.04 0.04 0.03 0.01 0.01 0.02 0.02 0.01 0.00 0.00 0.00 0.01 0.02 0.04 0.08 0.18 0.18 0.09 0.03 0.05 0.05 0.04 0.05 0.03 0.01 0.02 0.06 0.09 0.10 0.11 0.12 0.14 0.14 0.13
0.02 0.01 0.01 0.03 0.03 0.01 0.01 0.01 0.01 0.02 0.01 0.01 0.01 0.01 0.01 0.02 0.02 0.02 0.04 0.06 0.10 0.10 0.05 0.07 0.08 0.04 0.05 0.04 0.02 0.04 0.10 0.16 0.19 0.18 0.18 0.19 0.19 0.20
0.02 0.03 0.03 0.02 0.01 0.00 0.00 0.01 0.01 0.00 0.01 0.02 0.02 0.01 0.01 0.02 0.02 0.02 0.02 0.03 0.03 0.03 0.04 0.05 0.07 0.06 0.06 0.05 0.04 0.06 0.13 0.19 0.24 0.24 0.20 0.17 0.16 0.18
0.03 0.03 0.01 0.00 0.00 0.00 0.00 0.00 0.00 0.00 0.02 0.04 0.04 0.02 0.01 0.01 0.02 0.02 0.03 0.04 0.04 0.03 0.04 0.04 0.05 0.07 0.06 0.05 0.06 0.08 0.14 0.22 0.26 0.26 0.22 0.19 0.15 0.13
0.03 0.01 0.00 0.00 0.00 0.00 0.00 0.00 0.00 0.00 0.01 0.02 0.04 0.03 0.02 0.02 0.02 0.03 0.05 0.06 0.07 0.06 0.06 0.06 0.06 0.07 0.08 0.08 0.08 0.11 0.16 0.23 0.27 0.24 0.21 0.20 0.17 0.13
0.01 0.00 0.00 0.01 0.01 0.01 0.00 0.00 0.00 0.01 0.02 0.04 0.05 0.05 0.05 0.06 0.06 0.05 0.07 0.09 0.09 0.08 0.08 0.08 0.08 0.09 0.09 0.10 0.12 0.14 0.18 0.25 0.29 0.25 0.17 0.13 0.14 0.11
0.00 0.01 0.01 0.01 0.01 0.01 0.01 0.01 0.02 0.02 0.04 0.07 0.08 0.08 0.09 0.09 0.10 0.10 0.10 0.10 0.09 0.09 0.08 0.08 0.08 0.09 0.09 0.09 0.11 0.14 0.16 0.20 0.20 0.18 0.14 0.08 0.08 0.07
0.01 0.01 0.01 0.01 0.01 0.01 0.01 0.02 0.04 0.04 0.06 0.08 0.09 0.10 0.11 0.13 0.12 0.11 0.10 0.09 0.08 0.07 0.06 0.05 0.04 0.04 0.05 0.06 0.06 0.09 0.11 0.12 0.10 0.08 0.07 0.05 0.05 0.04
0.01 0.01 0.01 0.01 0.01 0.01 0.02 0.04 0.06 0.07 0.08 0.10 0.11 0.11 0.12 0.12 0.10 0.09 0.08 0.07 0.05 0.04 0.02 0.01 0.01 0.01 0.02 0.02 0.02 0.03 0.05 0.05 0.03 0.03 0.02 0.02 0.02 0.02
0.01 0.01 0.01 0.01 0.01 0.02 0.04 0.06 0.07 0.08 0.08 0.09 0.09 0.09 0.08 0.07 0.05 0.04 0.03 0.02 0.01 0.01 0.00 0.00 0.00 0.00 0.00 0.00 0.00 0.01 0.01 0.01 0.01 0.00 0.00 0.00 0.00 0.00
0.01 0.01 0.01 0.01 0.02 0.04 0.05 0.06 0.08 0.08 0.08 0.08 0.07 0.05 0.04 0.02 0.01 0.00 0.00 0.00 0.00 0.00 0.00 0.00 0.00 0.00 0.00 0.00 0.00 0.00 0.00 0.01 0.01 0.01 0.01 0.01 0.01 0.00
MSLP
1011.15 1010.73 1010.29 1009.76 1009.13 1008.35 1007.43 1006.39 1005.27 1004.13 1003.00 1001.96 1001.02 1000.21 999.53 998.95 998.45 997.99 997.54 997.07 996.56 996.01 995.41 994.77 994.12 993.45 992.80 992.17 991.58 991.03 990.54 990.12 989.78 989.53 989.38 989.34 989.43 989.62
1010.89 1010.48 1010.04 1009.55 1008.96 1008.23 1007.37 1006.39 1005.33 1004.22 1003.11 1002.05 1001.08 1000.21 999.44 998.77 998.16 997.60 997.06 996.51 995.94 995.35 994.72 994.07 993.41 992.74 992.07 991.43 990.82 990.26 989.74 989.30 988.94 988.67 988.49 988.43 988.47 988.62
1010.56 1010.13 1009.69 1009.20 1008.64 1007.95 1007.16 1006.25 1005.25 1004.20 1003.14 1002.10 1001.10 1000.18 999.34 998.56 997.84 997.15 996.50 995.85 995.19 994.53 993.86 993.19 992.51 991.84 991.19 990.56 989.96 989.41 988.93 988.50 988.17 987.91 987.75 987.69 987.71 987.82
1010.21 1009.73 1009.27 1008.77 1008.21 1007.56 1006.81 1005.97 1005.04 1004.07 1003.06 1002.05 1001.06 1000.10 999.18 998.31 997.47 996.66 995.88 995.11 994.36 993.62 992.90 992.18 991.49 990.82 990.17 989.56 989.00 988.49 988.05 987.68 987.39 987.18 987.06 987.02 987.04 987.12
1009.86 1009.33 1008.82 1008.28 1007.71 1007.06 1006.35 1005.56 1004.71 1003.80 1002.85 1001.88 1000.90 999.93 998.96 998.00 997.06 996.14 995.24 994.36 993.51 992.69 991.90 991.14 990.42 989.73 989.09 988.50 987.96 987.49 987.09 986.78 986.55 986.40 986.32 986.31 986.33 986.39
1009.52 1008.94 1008.36 1007.77 1007.16 1006.50 1005.80 1005.05 1004.25 1003.40 1002.51 1001.59 1000.63 999.65 998.65 997.64 996.63 995.61 994.62 993.64 992.71 991.81 990.96 990.15 989.39 988.68 988.02 987.42 986.89 986.43 986.06 985.78 985.59 985.48 985.44 985.45 985.49 985.54
1009.18 1008.53 1007.89 1007.23 1006.57 1005.88 1005.17 1004.44 1003.67 1002.87 1002.03 1001.16 1000.24 999.27 998.27 997.23 996.17 995.10 994.04 993.01 992.01 991.06 990.15 989.29 988.49 987.73 987.03 986.40 985.84 985.36 984.98 984.70 984.51 984.41 984.38 984.40 984.45 984.49
1008.81 1008.11 1007.39 1006.67 1005.95 1005.22 1004.49 1003.75 1003.00 1002.24 1001.44 1000.61 999.72 998.78 997.79 996.76 995.69 994.61 993.53 992.47 991.44 990.45 989.51 988.61 987.76 986.95 986.19 985.49 984.87 984.33 983.89 983.56 983.33 983.21 983.16 983.17 983.22 983.27
1008.40 1007.64 1006.86 1006.08 1005.30 1004.52 1003.76 1003.01 1002.27 1001.52 1000.76 999.96 999.11 998.20 997.24 996.23 995.19 994.12 993.05 992.00 990.97 989.98 989.02 988.10 987.21 986.35 985.52 984.74 984.03 983.39 982.86 982.44 982.14 981.95 981.87 981.86 981.90 981.96
1007.92 1007.11 1006.29 1005.45 1004.62 1003.81 1003.02 1002.26 1001.51 1000.77 1000.02 999.24 998.42 997.55 996.62 995.64 994.63 993.60 992.57 991.55 990.56 989.60 988.65 987.73 986.81 985.91 985.02 984.16 983.34 982.60 981.96 981.43 981.04 980.77 980.63 980.59 980.64 980.74
1007.38 1006.54 1005.68 1004.81 1003.95 1003.11 1002.30 1001.52 1000.77 1000.02 999.27 998.50 997.69 996.83 995.92 994.98 994.00 993.02 992.04 991.08 990.14 989.22 988.31 987.41 986.50 985.58 984.65 983.73 982.83 982.00 981.25 980.63 980.14 979.80 979.61 979.56 979.62 979.78
1006.80 1005.94 1005.06 1004.17 1003.30 1002.45 1001.63 1000.84 1000.08 999.32 998.56 997.77 996.95 996.08 995.18 994.25 993.30 992.35 991.42 990.51 989.64 988.78 987.94 987.09 986.21 985.30 984.37 983.42 982.49 981.59 980.78 980.09 979.54 979.16 978.94 978.89 978.99 979.22
1006.21 1005.34 1004.46 1003.58 1002.71 1001.87 1001.05 1000.26 999.48 998.70 997.91 997.09 996.23 995.34 994.41 993.47 992.52 991.59 990.70 989.85 989.03 988.25 987.48 986.69 985.88 985.03 984.14 983.21 982.29 981.39 980.56 979.85 979.28 978.89 978.69 978.67 978.83 979.15
1005.64 1004.78 1003.92 1003.06 1002.21 1001.39 1000.58 999.79 998.99 998.18 997.35 996.48 995.57 994.62 993.65 992.67 991.71 990.78 989.91 989.09 988.34 987.62 986.93 986.23 985.51 984.75 983.93 983.08 982.21 981.36 980.58 979.91 979.38 979.02 978.87 978.92 979.15 979.56
1005.14 1004.30 1003.46 1002.64 1001.82 1001.03 1000.23 999.44 998.62 997.78 996.89 995.96 994.98 993.97 992.93 991.91 990.91 989.97 989.10 988.31 987.60 986.95 986.34 985.74 985.12 984.46 983.76 983.02 982.26 981.51 980.82 980.23 979.78 979.51 979.43 979.56 979.89 980.40
1004.71 1003.91 1003.11 1002.33 1001.55 1000.78 1000.00 999.20 998.37 997.48 996.54 995.55 994.50 993.41 992.31 991.24 990.20 989.24 988.37 987.60 986.92 986.33 985.79 985.28 984.77 984.23 983.66 983.05 982.43 981.81 981.25 980.78 980.45 980.28 980.30 980.52 980.93 981.52
1004.39 1003.62 1002.87 1002.13 1001.39 1000.64 999.86 999.05 998.19 997.27 996.28 995.22 994.11 992.97 991.83 990.70 989.64 988.66 987.79 987.04 986.40 985.85 985.38 984.96 984.55 984.12 983.68 983.21 982.73 982.26 981.84 981.50 981.30 981.24 981.36 981.67 982.15 982.80
1004.18 1003.45 1002.74 1002.02 1001.30 1000.56 999.78 998.95 998.06 997.11 996.08 994.98 993.83 992.66 991.48 990.35 989.28 988.30 987.45 986.71 986.11 985.61 985.19 984.84 984.51 984.19 983.86 983.52 983.17 982.84 982.56 982.35 982.26 982.31 982.52 982.89 983.43 984.11
1004.06 1003.37 1002.67 1001.97 1001.25 1000.50 999.71 998.85 997.94 996.95 995.89 994.78 993.62 992.44 991.28 990.16 989.11 988.17 987.34 986.64 986.08 985.62 985.25 984.95 984.70 984.45 984.22 983.98 983.75 983.53 983.37 983.28 983.29 983.42 983.69 984.11 984.67 985.35
1004.01 1003.33 1002.64 1001.94 1001.20 1000.42 999.60 998.71 997.77 996.76 995.70 994.59 993.45 992.30 991.18 990.11 989.12 988.23 987.45 986.81 986.28 985.86 985.54 985.29 985.08 984.90 984.73 984.57 984.42 984.31 984.23 984.23 984.32 984.51 984.83 985.27 985.83 986.49
1004.00 1003.32 1002.61 1001.87 1001.10 1000.28 999.42 998.50 997.53 996.51 995.46 994.37 993.28 992.20 991.14 990.15 989.24 988.42 987.72 987.12 986.65 986.27 985.98 985.76 985.59 985.45 985.33 985.23 985.15 985.11 985.11 985.17 985.31 985.55 985.89 986.34 986.88 987.51
1003.99 1003.28 1002.54 1001.75 1000.93 1000.06 999.15 998.19 997.21 996.19 995.16 994.12 993.09 992.08 991.12 990.22 989.40 988.67 988.04 987.51 987.08 986.74 986.48 986.29 986.14 986.03 985.95 985.90 985.87 985.88 985.93 986.05 986.24 986.50 986.86 987.30 987.81 988.40
1003.95 1003.20 1002.40 1001.56 1000.67 999.75 998.79 997.81 996.81 995.81 994.81 993.83 992.87 991.95 991.08 990.28 989.55 988.90 988.34 987.86 987.48 987.17 986.94 986.77 986.64 986.56 986.51 986.49 986.51 986.56 986.67 986.82 987.05 987.34 987.70 988.13 988.62 989.17
Thickness
5484 5476 5468 5461 5452 5442 5432 5421 5412 5417 5440 5454 5448 5439 5424 5420 5422 5422 5425 5430 5433 5437 5444 5452 5462 5472 5481 5490 5500 5510 5521 5532 5541 5551 5559 5565 5571 5577
5462 5455 5446 5438 5429 5418 5408 5398 5386 5376 5383 5406 5413 5415 5406 5399 5397 5397 5402 5408 5415 5422 5429 5437 5445 5454 5463 5471 5479 5488 5498 5510 5522 5534 5544 5554 5561 5566
5442 5433 5424 5413 5404 5394 5385 5376 5368 5357 5351 5364 5373 5381 5381 5376 5374 5374 5378 5385 5396 5405 5412 5421 5429 5439 5448 5456 5464 5472 5481 5490 5502 5514 5526 5538 5548 5556
5422 5412 5401 5390 5379 5369 5362 5355 5348 5340 5330 5329 5340 5346 5351 5351 5349 5348 5351 5358 5369 5382 5390 5401 5413 5424 5434 5443 5451 5458 5466 5475 5485 5495 5508 5521 5535 5543
5400 5389 5378 5366 5358 5349 5341 5334 5328 5321 5313 5307 5313 5319 5325 5327 5324 5324 5325 5331 5341 5355 5367 5381 5395 5408 5419 5429 5438 5446 5455 5463 5472 5482 5492 5503 5517 5528
5380 5368 5357 5345 5337 5329 5322 5315 5308 5303 5300 5296 5296 5300 5304 5305 5301 5300 5303 5308 5315 5326 5340 5356 5372 5386 5401 5414 5426 5435 5443 5452 5461 5470 5480 5490 5501 5512
5362 5351 5339 5329 5318 5310 5302 5297 5291 5288 5286 5284 5283 5283 5285 5285 5283 5280 5281 5288 5296 5304 5316 5334 5351 5369 5384 5397 5409 5421 5431 5440 5450 5459 5469 5478 5489 5500
5345 5337 5327 5317 5307 5298 5291 5283 5277 5274 5272 5270 5270 5268 5269 5267 5266 5265 5265 5268 5280 5292 5295 5314 5328 5346 5362 5376 5392 5404 5417 5428 5440 5450 5460 5470 5480 5490
5327 5320 5313 5303 5292 5286 5282 5278 5274 5268 5262 5257 5256 5256 5255 5255 5252 5254 5256 5259 5268 5279 5282 5300 5316 5330 5345 5360 5375 5389 5403 5418 5431 5443 5454 5464 5474 5484
5311 5302 5295 5288 5279 5272 5271 5271 5269 5266 5259 5253 5248 5246 5245 5245 5243 5245 5249 5256 5268 5276 5280 5291 5307 5319 5334 5348 5363 5378 5394 5410 5425 5438 5450 5460 5470 5480
5300 5290 5280 5274 5267 5260 5257 5259 5262 5262 5257 5250 5244 5241 5242 5242 5241 5243 5248 5255 5269 5278 5280 5286 5300 5311 5325 5340 5356 5373 5388 5404 5420 5434 5447 5458 5468 5475
5290 5281 5271 5263 5257 5252 5248 5248 5250 5252 5250 5250 5247 5244 5241 5242 5242 5243 5247 5253 5264 5275 5280 5284 5294 5302 5319 5339 5354 5366 5381 5399 5417 5433 5446 5457 5465 5472
5277 5271 5263 5254 5249 5245 5241 5240 5239 5239 5241 5242 5243 5242 5242 5244 5247 5247 5249 5252 5261 5274 5280 5283 5292 5300 5309 5327 5343 5359 5376 5394 5412 5430 5443 5452 5460 5466
5262 5258 5253 5247 5242 5239 5236 5234 5233 5233 5234 5235 5237 5241 5244 5247 5249 5252 5255 5259 5266 5275 5282 5286 5293 5301 5309 5321 5337 5357 5373 5388 5405 5420 5431 5440 5446 5452
5251 5247 5243 5240 5237 5234 5231 5229 5229 5230 5230 5232 5236 5240 5244 5247 5252 5257 5264 5270 5277 5284 5289 5292 5295 5301 5307 5318 5333 5349 5364 5381 5396 5409 5417 5423 5428 5434
5243 5241 5238 5235 5230 5227 5227 5227 5227 5227 5228 5231 5235 5239 5244 5250 5255 5261 5268 5276 5284 5292 5295 5295 5296 5300 5310 5321 5333 5346 5356 5368 5384 5396 5403 5406 5410 5414
5235 5235 5233 5229 5226 5225 5225 5225 5227 5228 5229 5231 5234 5239 5245 5251 5258 5265 5273 5281 5287 5293 5297 5297 5299 5303 5310 5321 5333 5342 5350 5360 5373 5383 5389 5391 5392 5395
5227 5226 5223 5221 5220 5221 5223 5226 5227 5228 5229 5231 5235 5240 5246 5253 5262 5270 5277 5284 5288 5291 5292 5294 5298 5307 5314 5318 5323 5335 5343 5353 5362 5369 5375 5377 5375 5376
5220 5218 5216 5216 5217 5219 5221 5224 5227 5229 5230 5233 5238 5243 5249 5258 5266 5274 5281 5285 5288 5289 5290 5291 5295 5305 5320 5322 5319 5325 5336 5345 5352 5356 5359 5361 5361 5361
5214 5213 5213 5214 5216 5219 5222 5225 5228 5232 5235 5239 5244 5249 5256 5264 5271 5276 5281 5285 5288 5290 5292 5292 5292 5295 5303 5311 5314 5317 5326 5336 5342 5343 5343 5344 5345 5348
5211 5210 5212 5214 5217 5220 5223 5227 5231 5236 5241 5245 5251 5257 5263 5269 5274 5278 5282 5286 5289 5292 5293 5294 5292 5293 5297 5308 5312 5313 5318 5324 5331 5335 5336 5336 5335 5336
5208 5209 5212 5216 5219 5223 5227 5231 5237 5242 5248 5253 5259 5264 5270 5274 5277 5280 5283 5286 5289 5291 5294 5295 5296 5300 5307 5311 5309 5309 5312 5316 5321 5324 5327 5330 5332 5331
5207 5210 5215 5219 5223 5227 5232 5237 5243 5249 5255 5260 5265 5270 5274 5277 5280 5282 5285 5287 5290 5292 5294 5297 5298 5299 5301 5304 5305 5305 5306 5311 5315 5317 5317 5319 5323 5327